Vertical_Velocity
-6 -3 -4 -4 -6 -4 -4 -1 -3 -0 -7 -4 -3 0 16 6 -19 17 -15 36 -2 17 7 -0 4 8 1 8 6 -5 -0 -2 -3 3 1 3 2 1 0 -0 -0 -1 -0
-4 -2 -1 -2 -5 -5 -5 1 -6 -2 -1 -3 -5 -4 -19 -3 13 -18 31 16 -38 64 -7 3 -7 5 0 3 1 -3 -2 -0 7 -2 8 -4 -4 2 0 0 -1 -0 -0
-1 -10 -15 -4 -1 -3 -3 -0 -3 -6 1 -2 -3 -0 -8 -6 -6 -2 7 -7 -15 54 10 1 -1 -2 8 -2 -4 1 -1 -2 -7 2 9 -8 -11 -1 -1 -0 -1 -0 -2
-0 -3 -4 -7 -5 -3 -3 -5 -0 -4 -2 -3 -5 -2 -2 24 -22 -1 -7 18 -1 24 18 -7 -3 2 0 -2 4 4 4 -8 6 -4 1 -1 15 -8 -12 -5 -3 -1 -2
0 -7 -5 -2 -4 -7 -2 -3 1 -3 -1 -2 -7 -2 -2 -13 8 -27 -5 9 -5 8 70 -3 -2 2 -1 4 2 -2 -8 3 2 -1 3 -5 5 5 5 4 -6 -2 -2
-5 3 1 -6 -1 -4 -6 -1 -3 -0 -3 -4 -3 -4 -3 5 1 18 0 -2 10 -2 -18 3 -2 -3 8 0 -1 2 1 3 3 -6 2 10 5 2 1 2 3 6 -1
-1 -5 -6 -9 -4 -4 -5 -3 -1 0 -2 -4 -5 -3 -8 -4 -4 -21 -11 4 4 -5 4 12 -5 4 9 1 4 1 -3 2 -3 6 -2 -1 4 2 4 2 4 4 -1
1 -3 -3 -2 -5 -3 -5 -5 -3 -3 -1 -1 -5 -0 -4 -6 2 6 -9 -1 0 -2 10 -3 6 -4 7 -0 6 4 1 2 -0 0 0 1 0 -0 -1 5 -1 -0 0
-0 -0 -0 -0 0 -5 -2 -5 -3 -5 1 -2 -4 -3 -2 -3 1 -2 -2 2 -12 13 21 0 -1 -3 9 1 5 2 -7 2 4 0 1 0 6 -1 1 -1 -2 1 1
-0 2 -4 1 -2 -1 -5 -3 -2 -4 3 -0 -6 -1 3 -2 -4 -3 -9 -5 11 -2 4 -4 26 4 -1 3 6 4 -4 1 -2 -3 -3 2 -1 -2 2 0 -3 -3 -3
2 1 -2 -2 1 -0 -2 -4 -3 -4 -0 1 -6 -1 1 1 -5 1 -1 1 -11 3 -33 -7 16 -10 1 3 9 7 -3 2 1 -1 -2 2 3 1 1 -1 -1 -0 -1
-7 -3 -1 -1 1 4 -2 -4 -2 -4 -1 1 -6 -0 4 0 -4 -4 4 -1 -0 -2 -3 2 7 31 1 -3 2 2 -8 -2 -3 -1 -4 2 -1 2 1 -1 1 -1 3
-3 2 1 -3 -6 -1 1 -5 -3 -0 -2 -2 -5 -2 1 -3 2 1 13 5 -1 -12 3 -8 -1 7 4 -1 4 -0 -2 5 -0 3 -2 3 0 -1 2 -1 -2 -1 1
-4 -7 -2 1 2 -4 -0 -4 -1 -0 -1 -2 -3 -3 -1 3 -3 0 -0 2 -0 -10 9 -11 -1 8 42 3 0 -3 -3 6 2 -3 -2 2 0 2 3 1 2 0 1
-1 10 0 -0 -3 0 1 -2 -1 -0 -2 -2 -3 -1 4 5 1 -5 -1 -3 -15 -7 -6 -5 5 3 20 4 2 -3 3 2 -1 -6 0 4 -1 4 4 2 5 1 2
9 3 6 4 0 2 2 -1 -1 -2 -4 1 -1 2 -1 6 2 1 2 1 5 3 -2 -11 1 11 29 10 -2 3 5 2 -3 -7 -1 5 1 -0 2 1 0 -1 2
-1 3 -1 -4 1 4 7 1 -1 -0 -6 -2 -5 -1 -0 7 -1 6 1 -6 -2 -17 -22 2 -7 7 8 19 -8 7 6 0 -1 -5 1 5 -0 2 0 -3 -3 -4 0
3 1 2 4 5 -2 -0 -1 -5 -1 -2 -0 -2 -0 -2 5 -2 -0 3 8 -9 -10 -22 -15 1 -5 -7 9 17 7 9 -0 3 0 5 9 -0 2 -1 -1 -1 2 -3
10 4 3 4 1 3 -2 0 -1 -2 -8 -8 -1 -1 2 1 1 -7 -2 -1 -6 -9 -8 -9 8 -1 -19 10 9 7 2 4 2 8 6 2 2 -1 -1 3 3 -2 -1
11 -4 13 6 5 4 0 6 5 -3 -8 -6 -4 9 8 -3 5 6 5 -2 3 7 1 -15 2 3 -2 10 0 11 3 2 -0 11 3 2 0 -2 -1 -1 3 -1 2
9 14 15 3 7 8 2 4 -1 -1 3 10 3 7 4 0 2 11 -3 9 4 -11 -8 -9 3 5 -2 -8 15 8 -1 -0 3 -1 -1 1 -3 2 0 2 4 4 4
-18 12 17 11 7 6 7 -3 8 -0 5 -0 1 7 15 10 11 13 14 7 6 6 -4 -4 -3 0 0 -10 -8 3 -4 7 5 0 -1 3 3 -1 3 3 2 4 -2
-1 17 6 21 6 5 -4 -11 7 5 -8 -6 -8 4 2 18 5 9 9 -3 3 9 -17 8 25 0 -2 -6 -6 48 -4 5 1 4 -0 14 6 -3 19 -3 6 2 -7
-7 5 16 12 -3 -4 -1 6 10 -2 6 -4 8 25 7 22 18 25 4 -0 5 -35 -3 7 2 -2 -13 9 7 -17 17 1 -2 -1 2 10 3 12 -1 -1 -2 -3 0
19 10 4 5 36 -2 -7 -0 8 -9 7 8 31 28 9 25 19 11 14 19 -22 -9 -5 -1 -10 -6 -13 0 5 -1 4 -9 14 10 -0 -3 4 8 -0 4 8 1 -2
14 17 7 12 12 14 21 -12 -0 13 5 26 -11 8 -2 -5 2 5 -6 -8 -14 -0 1 -9 -1 -4 10 10 2 6 -1 -5 -7 3 -2 -11 -4 2 4 -3 1 5 6
Height
3011 3008 3003 2999 2995 2994 2990 2993 2994 2997 3001 3005 3009 3015 3022 3028 3044 3049 3054 3060 3066 3076 3087 3100 3108 3116 3123 3130 3135 3139 3146 3151 3156 3161 3164 3169 3173 3176 3180 3184 3187 3190 3193
3006 3001 2996 2991 2988 2986 2985 2985 2986 2989 2993 2997 3001 3006 3013 3021 3032 3043 3047 3055 3060 3070 3082 3092 3101 3111 3117 3125 3131 3137 3143 3148 3154 3157 3163 3166 3170 3173 3177 3181 3185 3188 3191
3001 2994 2987 2984 2980 2978 2976 2975 2978 2980 2983 2987 2992 2997 3005 3013 3022 3030 3042 3048 3055 3058 3074 3085 3095 3105 3114 3120 3126 3135 3140 3145 3147 3154 3160 3162 3164 3169 3174 3178 3183 3186 3189
2997 2987 2979 2973 2971 2970 2967 2966 2968 2970 2973 2977 2982 2987 2994 3005 3013 3026 3033 3043 3050 3051 3065 3078 3089 3100 3109 3115 3124 3130 3136 3141 3148 3151 3156 3160 3168 3169 3171 3176 3180 3184 3187
2989 2979 2971 2964 2959 2958 2958 2956 2955 2958 2961 2966 2972 2979 2987 2998 3004 3008 3026 3034 3041 3051 3053 3067 3082 3094 3103 3112 3119 3125 3131 3138 3145 3149 3153 3157 3165 3168 3173 3175 3178 3182 3185
2979 2971 2963 2956 2951 2946 2944 2943 2942 2947 2949 2954 2962 2968 2977 2982 2989 2998 3014 3027 3033 3043 3053 3062 3076 3089 3099 3108 3115 3122 3128 3135 3140 3144 3151 3158 3162 3167 3170 3174 3177 3180 3183
2970 2960 2951 2943 2937 2934 2931 2928 2928 2933 2937 2941 2950 2958 2967 2974 2984 2993 3008 3019 3029 3037 3048 3055 3070 3082 3094 3104 3111 3118 3123 3131 3136 3142 3147 3152 3158 3162 3167 3171 3174 3178 3181
2960 2950 2940 2931 2923 2920 2917 2914 2913 2916 2923 2928 2937 2947 2957 2965 2974 2984 2994 3011 3022 3029 3041 3049 3064 3077 3089 3098 3106 3113 3120 3127 3132 3139 3143 3148 3154 3158 3162 3168 3171 3174 3177
2948 2938 2929 2919 2911 2906 2903 2899 2897 2899 2908 2914 2924 2935 2944 2956 2965 2974 2985 3002 3014 3023 3033 3041 3058 3072 3082 3093 3101 3108 3115 3122 3126 3133 3138 3144 3150 3154 3159 3163 3167 3171 3175
2935 2926 2918 2908 2899 2892 2888 2885 2883 2885 2892 2900 2910 2922 2933 2947 2959 2966 2979 2993 3010 3015 3024 3034 3046 3064 3077 3087 3096 3103 3109 3116 3122 3128 3134 3140 3145 3149 3156 3160 3164 3167 3171
2921 2911 2902 2894 2885 2878 2872 2871 2870 2872 2877 2886 2897 2910 2921 2937 2951 2961 2973 2988 3002 3006 3020 3029 3040 3056 3070 3081 3090 3097 3104 3111 3117 3124 3130 3136 3141 3146 3151 3156 3161 3165 3169
2910 2897 2885 2875 2868 2861 2857 2855 2857 2858 2864 2873 2884 2899 2911 2926 2942 2955 2967 2981 2991 3003 3013 3023 3034 3046 3063 3075 3084 3090 3099 3106 3112 3119 3125 3132 3137 3142 3148 3153 3159 3162 3167
2895 2881 2869 2859 2851 2846 2841 2840 2843 2846 2852 2861 2872 2889 2901 2916 2932 2948 2960 2972 2984 2996 3004 3016 3026 3035 3055 3068 3077 3087 3095 3102 3108 3115 3122 3129 3134 3139 3145 3150 3155 3159 3163
2884 2868 2855 2844 2835 2831 2826 2825 2829 2836 2842 2851 2863 2879 2893 2907 2923 2935 2948 2962 2981 2991 2999 3007 3019 3032 3046 3061 3072 3081 3089 3097 3104 3111 3118 3125 3130 3137 3142 3147 3153 3156 3159
2868 2857 2841 2830 2822 2816 2813 2812 2818 2826 2833 2842 2855 2871 2885 2899 2914 2927 2940 2958 2973 2985 2997 3004 3016 3029 3038 3055 3065 3075 3084 3092 3098 3106 3114 3120 3126 3134 3139 3144 3149 3152 3155
2861 2842 2829 2818 2811 2804 2802 2803 2810 2819 2826 2834 2848 2862 2876 2891 2907 2922 2935 2951 2966 2981 2992 2998 3011 3021 3034 3049 3062 3072 3080 3087 3094 3101 3108 3115 3121 3127 3133 3139 3144 3147 3150
2850 2831 2820 2811 2803 2799 2796 2798 2806 2813 2821 2830 2843 2856 2870 2884 2900 2913 2929 2944 2961 2978 2988 2995 3005 3018 3029 3045 3058 3068 3076 3083 3089 3096 3102 3110 3115 3121 3127 3132 3137 3141 3145
2844 2826 2814 2809 2804 2799 2798 2798 2802 2809 2818 2827 2840 2852 2865 2880 2896 2910 2925 2941 2960 2975 2986 2993 3002 3014 3023 3041 3052 3063 3072 3079 3085 3091 3097 3104 3111 3117 3122 3128 3132 3137 3141
2842 2826 2815 2809 2805 2801 2798 2797 2799 2805 2815 2824 2836 2848 2863 2878 2892 2908 2922 2941 2956 2971 2979 2992 2999 3009 3018 3035 3046 3057 3064 3071 3079 3087 3092 3098 3105 3112 3118 3124 3128 3131 3135
2843 2826 2814 2808 2805 2802 2799 2798 2799 2804 2812 2823 2835 2847 2862 2876 2891 2908 2924 2941 2955 2968 2978 2988 2993 3005 3015 3029 3041 3052 3058 3066 3072 3081 3087 3094 3100 3107 3113 3117 3121 3125 3129
2844 2829 2816 2813 2808 2805 2804 2804 2807 2812 2819 2826 2837 2849 2864 2881 2897 2914 2931 2943 2953 2965 2976 2985 2989 3001 3013 3023 3036 3045 3051 3061 3069 3074 3081 3089 3095 3101 3106 3111 3115 3120 3123
2846 2834 2820 2815 2812 2811 2812 2810 2815 2820 2827 2835 2844 2855 2870 2887 2902 2917 2931 2943 2954 2963 2970 2978 2985 2994 3008 3019 3030 3040 3048 3058 3064 3071 3080 3086 3092 3096 3101 3104 3107 3111 3114
2853 2842 2831 2825 2822 2816 2818 2820 2823 2830 2836 2844 2851 2863 2878 2894 2906 2920 2931 2941 2950 2961 2970 2972 2980 2990 3002 3013 3022 3032 3042 3050 3057 3065 3075 3083 3088 3091 3095 3096 3102 3104 3108
2863 2850 2841 2835 2835 2831 2830 2828 2835 2842 2851 2856 2863 2873 2886 2898 2911 2923 2932 2942 2956 2965 2965 2970 2975 2986 2997 3006 3015 3020 3030 3039 3048 3057 3066 3075 3078 3082 3085 3089 3093 3096 3101
2873 2860 2853 2846 2841 2841 2843 2845 2848 2853 2857 2864 2872 2880 2893 2902 2915 2926 2936 2947 2957 2961 2963 2971 2977 2983 2993 3001 3010 3018 3023 3033 3040 3051 3057 3063 3068 3071 3075 3081 3085 3088 3091
2880 2869 2864 2858 2852 2848 2847 2852 2858 2861 2868 2877 2886 2893 2904 2913 2923 2930 2936 2943 2952 2957 2962 2969 2975 2981 2989 2996 3003 3010 3017 3024 3033 3040 3047 3053 3059 3064 3069 3072 3076 3079 3083